978  
ASUS41 KPHI 200212  
RWRPHI  
 
REGIONAL WEATHER ROUNDUP  
NATIONAL WEATHER SERVICE MOUNT HOLLY NJ  
1000 PM EDT SUN MAY 19 2019  
 
NOTE: "FAIR" INDICATES FEW OR NO CLOUDS BELOW 12,000 FEET WITH NO  
SIGNIFICANT WEATHER AND/OR S TO VISIBILITY
.  
 
* = STATION DOES NOT REPORT PRECIPITATION (E.G. RAIN, SNOW, ETC.)  
OR FOG.
 
 
NJZ015>026-200300-  
SOUTHERN NEW JERSEY  
 
CITY SKY/WX TMP DP RH WIND PRES REMARKS
 
POMONA FAIR 68 67 96 S17G28 29.96R  
WILDWOOD* FAIR 67 63 87 S18G28 29.96R  
MILLVILLE FAIR 69 66 90 S7 29.94R  
WRIGHTSTOWN FAIR 71 66 85 S9 29.91R  
MOUNT HOLLY FAIR 72 66 81 VRB5 29.92R  
TRENTON FAIR 73 68 84 S8 29.91R  
 

 
NJZ001>014-200300-  
NORTHERN NEW JERSEY  
 
CITY SKY/WX TMP DP RH WIND PRES REMARKS
 
SUSSEX FAIR 66 66 100 CALM 29.91S  
ANDOVER* N/A 68 67 96 W5 29.91R  
MORRISTOWN MOCLDY 75 70 83 S5 29.91R  
NEWARK MOCLDY 74 67 78 S9 29.92R  
TETERBORO FAIR 73 66 78 S9 29.91R  
CALDWELL FAIR 77 69 76 S5 29.91R  
SOMERVILLE FAIR 74 68 81 SE5 29.89R  
ALLAIRE* FAIR 70 67 90 S12G18 29.95R  
TOMS RIVER* FAIR 70 68 93 S14G20 29.94S  
 

 
PAZ043-044-047-054-055-060>062-066>071-200300-  
EASTERN PENNSYLVANIA  
 
CITY SKY/WX TMP DP RH WIND PRES REMARKS
 
PHILADELPHIA MOCLDY 75 66 73 S8 29.91R  
NORTH PHILA FAIR 78 66 66 VRB5 29.93R  
BLUE BELL* FAIR 73 70 88 W3 29.95R  
DOYLESTOWN FAIR 76 67 73 W15G33 29.96R  
QUAKERTOWN* CLOUDY 66 66 100 VRB7G14 29.96 FOG  
PERKASIE* TSTM 66 66 100 NW6G23 29.97R  
POTTSTOWN CLOUDY 70 61 73 NW10G21 29.94R THUNDER  
LANCASTER LGT RAIN 70 67 90 E5 29.89F  
COATESVILLE FAIR 73 70 88 E3 29.93S  
WEST CHESTER FAIR 75 68 78 CALM 29.93R THUNDER  
READING MOCLDY 66 66 100 N5 29.89F THUNDER FOG  
ALLENTOWN TSTM 71 64 78 SW15G23 29.94R  
QN CITY/ALNTWN TSTM 66 66 100 SW7G18 29.94F  
MOUNT POCONO MOCLDY 67 66 97 S9 29.94R  
HAZLETON MOCLDY 68 64 88 S7 29.95S  
LEHIGHTON MOCLDY 66 66 100 CALM 29.93R  
WILKES BARRE MOCLDY 68 66 93 CALM 29.90R  
 

 
DEZALL-MDZ008-012-015-019-020-200300-  
DELAWARE AND EASTERN MARYLAND  
 
CITY SKY/WX TMP DP RH WIND PRES REMARKS
 
WILMINGTON FAIR 73 67 81 S10 29.91R  
DOVER FAIR 75 66 72 S13 29.92R  
CHESWOLD N/A 77 68 73 S7 29.92R  
GEORGETOWN FAIR N/A N/A N/A S10 29.96R  
EASTON CLEAR 79 70 73 S15 29.95S  
PATUXENT FAIR 78 70 76 S10 29.92  
OCEAN CITY FAIR 68 64 87 SW13G21 29.98S  
WALLOPS ISLAND FAIR 71 67 87 S13 29.99R  
CAMBRIDGE CLEAR 77 68 73 S10G18 29.93R  
SALISBURY FAIR 74 65 73 S10 29.96R  
 

 
PAZ001-021-NYZ056-072-MDZ011-DCZ001-200300-  
OTHER NEARBY LOCATIONS  
 
CITY SKY/WX TMP DP RH WIND PRES REMARKS
 
HARRISBURG CLOUDY 67 65 93 W12G21 29.89R  
STATE COLLEGE PTCLDY 64 64 100 CALM 29.87F  
WILLIAMSPORT CLOUDY 68 66 93 SE7 29.85R  
BINGHAMTON FAIR 70 61 73 S14G23 29.84S  
NEW YORK CITY FAIR 71 65 81 VRB3 29.95R  
BALTIMORE MOCLDY 78 71 79 S6 29.89R  
WASHINGTON DC MOCLDY 78 64 61 S12 29.90R  
 

 
 
 
CLICK HERE TO GO TO PREVIOUS BULLETINS.

The Nexlab PA Page
The Nexlab NJ Page
The Nexlab DE Page
The Nexlab MD Page Main Text Page